Location: Ahstedt
(52.2048°N, 10.1060°E)
Time: 18:37:42
(UTC+00:00)

Cosmos 2082 Rocket - Pass Details

Date: 20 April 2026
Orbit: 831 x 853 km, 71.0° (Epoch: 13 May)

Event Time Altitude Azimuth Distance (km) Brightness Sun altitude
Exits shadow 03:10:44 - 269° (W) 2,785 4.4 -9.2°
Reaches altitude 10° 03:11:46 10° 276° (W) 2,487 4.2 -9.1°
Maximum altitude 03:16:09 22° 326° (NW) 1,782 3.9 -8.5°
Drops below altitude 10° 03:20:34 10° 17° (NNE) 2,495 5.4 -7.9°
Sets 03:23:37 0° 32° (NNE) 3,432 6.6 -7.5°
